• In Germany
  • List of Countries
  • For 7 days
  • Water Temperature
  • Satellite Maps
  • Weather Map
  • Weather Widgets
  • user-avatar
    Login

    Hourly Weather Bugojno

    Today, 22 July, Sunday

    Time Temperature Precipitation Wind Pressure Humidity
    00:00 +19°C° 0.1 mm 2 mps 708 mmHg 67%
    01:00 +18°C° 0.1 mm 2 mps 708 mmHg 70%
    02:00 +18°C° 0.2 mm 2 mps 708 mmHg 70%
    03:00 +18°C° 0.2 mm 2 mps 707 mmHg 70%
    04:00 +17°C° 0.2 mm 2 mps 707 mmHg 70%
    05:00 +19°C° 0.2 mm 2 mps 708 mmHg 70%
    06:00 +20°C° 0.2 mm 2 mps 708 mmHg 70%
    07:00 +23°C° 0.2 mm 2 mps 708 mmHg 70%
    08:00 +25°C° 0 mm 2 mps 708 mmHg 65%
    09:00 +27°C° 0 mm 2 mps 708 mmHg 59%
    10:00 +28°C° 0 mm 2 mps 709 mmHg 53%
    11:00 +28°C° 0.4 mm 2 mps 709 mmHg 56%
    12:00 +28°C° 0.4 mm 2 mps 709 mmHg 58%
    13:00 +28°C° 0.4 mm 2 mps 709 mmHg 61%
    14:00 +28°C° 1 mm 2 mps 709 mmHg 63%
    15:00 +27°C° 1 mm 2 mps 708 mmHg 65%
    16:00 +27°C° 1 mm 1 mps 708 mmHg 68%
    17:00 +25°C° 0.6 mm 1 mps 708 mmHg 74%
    18:00 +24°C° 0.6 mm 1 mps 708 mmHg 80%
    19:00 +22°C° 0.6 mm 1 mps 707 mmHg 86%
    20:00 +21°C° 0.1 mm 1 mps 708 mmHg 87%
    21:00 +20°C° 0.1 mm 1 mps 708 mmHg 89%
    22:00 +19°C° 0.1 mm 1 mps 708 mmHg 91%
    23:00 +19°C° 0.2 mm 1 mps 708 mmHg 91%

    Tomorrow, 23 July, Monday

    Time Temperature Precipitation Wind Pressure Humidity
    00:00 +18°C° 0.2 mm 1 mps 708 mmHg 92%
    01:00 +18°C° 0.2 mm 1 mps 708 mmHg 92%
    02:00 +18°C° 0.4 mm 1 mps 707 mmHg 92%
    03:00 +18°C° 0.4 mm 1 mps 707 mmHg 92%
    04:00 +18°C° 0.4 mm 1 mps 707 mmHg 92%
    05:00 +19°C° 0.4 mm 1 mps 707 mmHg 90%
    06:00 +20°C° 0.4 mm 1 mps 707 mmHg 88%
    07:00 +21°C° 0.4 mm 1 mps 707 mmHg 86%
    08:00 +21°C° 1 mm 1 mps 708 mmHg 85%
    09:00 +21°C° 1 mm 2 mps 708 mmHg 83%
    10:00 +21°C° 1 mm 2 mps 708 mmHg 82%
    11:00 +21°C° 0.9 mm 2 mps 708 mmHg 83%
    12:00 +21°C° 0.9 mm 2 mps 708 mmHg 83%
    13:00 +23°C° 0.9 mm 2 mps 707 mmHg 84%
    14:00 +21°C° 0.7 mm 2 mps 707 mmHg 85%
    15:00 +21°C° 0.7 mm 2 mps 707 mmHg 87%
    16:00 +21°C° 0.7 mm 3 mps 707 mmHg 88%
    17:00 +20°C° 0.4 mm 2 mps 707 mmHg 90%
    18:00 +19°C° 0.4 mm 2 mps 707 mmHg 92%
    19:00 +19°C° 0.4 mm 2 mps 707 mmHg 94%
    20:00 +18°C° 0.3 mm 2 mps 707 mmHg 95%
    21:00 +18°C° 0.3 mm 2 mps 707 mmHg 95%
    22:00 +18°C° 0.3 mm 2 mps 707 mmHg 95%
    23:00 +18°C° 0.4 mm 2 mps 707 mmHg 95%

    Day after tomorrow, 24 July, Tuesday

    Time Temperature Precipitation Wind Pressure Humidity
    00:00 +17°C° 0.4 mm 2 mps 707 mmHg 95%
    01:00 +17°C° 0.4 mm 2 mps 707 mmHg 95%
    02:00 +17°C° 0.1 mm 2 mps 707 mmHg 95%
    03:00 +17°C° 0.1 mm 2 mps 707 mmHg 96%
    04:00 +17°C° 0.1 mm 2 mps 708 mmHg 96%
    05:00 +17°C° 0 mm 2 mps 708 mmHg 95%
    06:00 +18°C° 0 mm 3 mps 708 mmHg 93%
    07:00 +19°C° 0 mm 3 mps 709 mmHg 92%
    08:00 +20°C° 0.1 mm 3 mps 709 mmHg 86%
    09:00 +21°C° 0.1 mm 3 mps 709 mmHg 80%
    10:00 +22°C° 0.1 mm 4 mps 709 mmHg 74%
    11:00 +23°C° 0.1 mm 4 mps 709 mmHg 69%
    12:00 +25°C° 0.1 mm 4 mps 709 mmHg 64%
    13:00 +26°C° 0.1 mm 4 mps 709 mmHg 59%
    14:00 +26°C° 0.1 mm 4 mps 709 mmHg 58%
    15:00 +26°C° 0.1 mm 4 mps 709 mmHg 58%
    16:00 +26°C° 0.1 mm 4 mps 708 mmHg 57%
    17:00 +25°C° 0 mm 3 mps 708 mmHg 65%
    18:00 +22°C° 0 mm 3 mps 708 mmHg 72%
    19:00 +20°C° 0 mm 2 mps 708 mmHg 80%
    20:00 +19°C° 0 mm 2 mps 708 mmHg 82%
    21:00 +18°C° 0 mm 2 mps 708 mmHg 85%
    22:00 +18°C° 0 mm 1 mps 708 mmHg 88%
    23:00 +18°C° 0 mm 1 mps 708 mmHg 89%

    25 July, Wednesday

    Time Temperature Precipitation Wind Pressure Humidity
    00:00 +18°C° 0 mm 1 mps 708 mmHg 89%
    01:00 +16°C° 0 mm 1 mps 708 mmHg 89%
    02:00 +16°C° 0 mm 1 mps 708 mmHg 90%
    03:00 +16°C° 0 mm 1 mps 708 mmHg 90%
    04:00 +16°C° 0 mm 1 mps 708 mmHg 91%
    05:00 +18°C° 0 mm 2 mps 708 mmHg 87%
    06:00 +19°C° 0 mm 2 mps 709 mmHg 83%
    07:00 +21°C° 0 mm 2 mps 709 mmHg 78%
    08:00 +23°C° 0 mm 2 mps 709 mmHg 73%
    09:00 +24°C° 0 mm 3 mps 710 mmHg 67%
    10:00 +26°C° 0 mm 3 mps 710 mmHg 61%
    11:00 +26°C° 0.3 mm 3 mps 710 mmHg 62%
    12:00 +26°C° 0.3 mm 3 mps 709 mmHg 63%
    13:00 +27°C° 0.3 mm 3 mps 709 mmHg 64%
    14:00 +26°C° 0.5 mm 3 mps 709 mmHg 67%
    15:00 +26°C° 0.5 mm 3 mps 709 mmHg 69%
    16:00 +26°C° 0.5 mm 3 mps 709 mmHg 71%
    17:00 +24°C° 0.3 mm 2 mps 709 mmHg 77%
    18:00 +23°C° 0.3 mm 2 mps 709 mmHg 82%
    19:00 +21°C° 0.3 mm 1 mps 708 mmHg 87%
    20:00 +20°C° 0 mm 1 mps 709 mmHg 89%
    21:00 +20°C° 0 mm 1 mps 709 mmHg 91%
    22:00 +19°C° 0 mm 1 mps 709 mmHg 92%
    23:00 +18°C° 0 mm 1 mps 709 mmHg 92%

    26 July, Thursday

    Time Temperature Precipitation Wind Pressure Humidity
    00:00 +18°C° 0 mm 1 mps 708 mmHg 92%
    01:00 +18°C° 0 mm 1 mps 708 mmHg 92%
    02:00 +18°C° 0 mm 1 mps 708 mmHg 92%
    03:00 +18°C° 0 mm 1 mps 708 mmHg 92%
    04:00 +16°C° 0 mm 1 mps 708 mmHg 91%
    05:00 +19°C° 0 mm 1 mps 709 mmHg 88%
    06:00 +20°C° 0 mm 1 mps 709 mmHg 85%
    07:00 +22°C° 0 mm 1 mps 709 mmHg 82%
    08:00 +23°C° 0.1 mm 2 mps 710 mmHg 75%
    09:00 +25°C° 0.1 mm 2 mps 710 mmHg 68%
    10:00 +26°C° 0.1 mm 3 mps 710 mmHg 61%
    11:00 +27°C° 0.3 mm 3 mps 710 mmHg 61%
    12:00 +27°C° 0.3 mm 3 mps 710 mmHg 61%
    13:00 +28°C° 0.3 mm 3 mps 710 mmHg 61%
    14:00 +27°C° 0.5 mm 3 mps 710 mmHg 63%
    15:00 +27°C° 0.5 mm 3 mps 709 mmHg 65%
    16:00 +26°C° 0.5 mm 3 mps 709 mmHg 68%
    17:00 +25°C° 0.5 mm 2 mps 709 mmHg 74%
    18:00 +23°C° 0.5 mm 2 mps 709 mmHg 80%
    19:00 +20°C° 0.5 mm 2 mps 709 mmHg 86%
    20:00 +19°C° 0.3 mm 2 mps 709 mmHg 88%
    21:00 +19°C° 0.3 mm 1 mps 709 mmHg 90%
    22:00 +18°C° 0.3 mm 1 mps 709 mmHg 92%
    23:00 +18°C° 0.3 mm 1 mps 709 mmHg 92%

    27 July, Friday

    Time Temperature Precipitation Wind Pressure Humidity
    00:00 +18°C° 0.3 mm 1 mps 709 mmHg 92%
    01:00 +18°C° 0.3 mm 1 mps 709 mmHg 92%
    02:00 +18°C° 0.4 mm 1 mps 709 mmHg 92%
    03:00 +16°C° 0.4 mm 1 mps 709 mmHg 93%
    04:00 +16°C° 0.4 mm 1 mps 709 mmHg 93%
    05:00 +19°C° 0.3 mm 1 mps 709 mmHg 90%
    06:00 +20°C° 0.3 mm 1 mps 710 mmHg 87%
    07:00 +22°C° 0.3 mm 1 mps 710 mmHg 84%
    08:00 +23°C° 0.7 mm 1 mps 710 mmHg 78%
    09:00 +25°C° 0.7 mm 1 mps 710 mmHg 72%
    10:00 +26°C° 0.7 mm 2 mps 710 mmHg 65%
    11:00 +27°C° 0.9 mm 2 mps 710 mmHg 65%
    12:00 +27°C° 0.9 mm 2 mps 710 mmHg 64%
    13:00 +28°C° 0.9 mm 2 mps 710 mmHg 63%
    14:00 +28°C° 0.7 mm 2 mps 710 mmHg 63%
    15:00 +27°C° 0.7 mm 2 mps 710 mmHg 63%
    16:00 +27°C° 0.7 mm 2 mps 710 mmHg 64%
    17:00 +26°C° 0.6 mm 2 mps 710 mmHg 71%
    18:00 +24°C° 0.6 mm 1 mps 710 mmHg 78%
    19:00 +22°C° 0.6 mm 1 mps 710 mmHg 86%
    20:00 +21°C° 0.3 mm 1 mps 710 mmHg 88%
    21:00 +20°C° 0.3 mm 1 mps 710 mmHg 90%
    22:00 +20°C° 0.3 mm 1 mps 710 mmHg 92%
    23:00 +19°C° 0.1 mm 1 mps 710 mmHg 92%
    Show more